Content
SEND FEEDBACK

Daily
Averages
Monthly
Summary
United States of America

STATEN ISLAND, NEW YORK


Home > North America > United States > New York
Elevation: 152 feet     Latitude: 40 35N     Longitude: 074 09W

WEATHER
 
SELECT A DAY
Number of Records: 192,381;   Date Range: 1/1/95 - 10/21/14
 
SHARE

PRINT THIS DATA

[ ← Previous Day ]
WEATHER ALMANAC - MARCH 20, 2013
[ Next Day → ]
[ °C ]   °F
Weather ElementAverageHighLow
Temperature39.6 °F46.9 °F (2:51 pm)30.9 °F (6:51 am)
Dewpoint16.7 °F19.9 °F (11:51 pm)12.9 °F (3:51 pm)
Humidity40.7 %59 % (6:51 am)27 % (3:51 pm)
Barometer29.85 in29.90 in (7:51 am)29.79 in (4:51 pm)
Wind Speed13.4 mph21.9 mph (8:51 am)
Wind Gust31.1 mph (3:51 pm)
Weather ElementAverage
Visibility10 mi
Wind DirectionW (270.4 °)

Weather ElementTotal
Precipitation---
Heating Degree Days26.1 (Base 65)
Averaged from 23 records on March 20, 2013
WEATHER CONDITIONS BREAKOUT
WIND DIRECTION BREAKOUT
WEATHER BY HOUR - MARCH 20, 2013
[ °C ]   °F
Local TimeTemperatureDewpointHumidityBarometerVisibilityWind DirectionWind SpeedGust SpeedPrecipitationEventsConditions
1:51 AM36.0 °F16.0 °F44 %29.85 in10.0 miWest (270°)12.7 mphPartly Cloudy
2:51 AM34.0 °F17.1 °F50 %29.87 in10.0 miWSW (250°)9.2 mphClear
3:51 AM33.1 °F17.1 °F52 %29.88 in10.0 miWest (270°)10.4 mphPartly Cloudy
4:51 AM32.0 °F18.0 °F56 %29.88 in10.0 miWest (260°)9.2 mphPartly Cloudy
5:51 AM32.0 °F18.0 °F56 %29.88 in10.0 miWSW (240°)10.4 mphClear
6:51 AM30.9 °F18.0 °F59 %29.89 in10.0 miSW (230°)11.5 mphPartly Cloudy
7:51 AM33.1 °F18.0 °F54 %29.90 in10.0 miWSW (240°)11.5 mphPartly Cloudy
8:51 AM36.0 °F17.1 °F46 %29.88 in10.0 miWSW (250°)21.9 mph26.5 mphPartly Cloudy
9:51 AM37.9 °F17.1 °F43 %29.89 in10.0 miWest (260°)19.6 mph29.9 mphScattered Clouds
10:51 AM39.2 °F17.6 °F42 %29.89 in10.0 miWest (270°)20.7 mph28.8 mphScattered Clouds
11:51 AM43.0 °F18.0 °F37 %29.88 in10.0 miWest (270°)13.8 mph25.3 mphScattered Clouds
12:51 PM44.1 °F16.0 °F32 %29.86 in10.0 miWSW (240°)19.6 mph27.6 mphScattered Clouds
1:51 PM45.0 °F16.0 °F31 %29.84 in10.0 miWest (280°)18.4 mph27.6 mphScattered Clouds
2:51 PM46.9 °F17.1 °F30 %29.80 in10.0 miWSW (250°)20.7 mph29.9 mphScattered Clouds
3:51 PM45.0 °F12.9 °F27 %29.80 in10.0 miWest (260°)20.7 mph31.1 mphMostly Cloudy
4:51 PM45.0 °F16.0 °F31 %29.79 in10.0 miWest (280°)12.7 mphMostly Cloudy
5:51 PM45.0 °F15.1 °F30 %29.79 in10.0 miWNW (290°)16.1 mphMostly Cloudy
6:51 PM44.1 °F14.0 °F30 %29.80 in10.0 miWest (280°)11.5 mphMostly Cloudy
7:51 PM43.0 °F14.0 °F31 %29.80 in10.0 miWest (270°)9.2 mphMostly Cloudy
8:51 PM42.1 °F16.0 °F35 %29.81 in10.0 miNW (320°)5.8 mphMostly Cloudy
9:51 PM42.1 °F17.1 °F37 %29.82 in10.0 miNW (310°)6.9 mphOvercast
10:51 PM41.0 °F17.1 °F38 %29.83 in10.0 miWNW (300°)5.8 mphOvercast
11:51 PM39.9 °F19.9 °F45 %29.83 in10.0 miNNW (330°)9.2 mphOvercast
Hourly data recorded from KEWR, located miles away from Staten Island, New York







STORIES FROM OUR PARTNERS